E7739 Weather Reports


time (UTC)temp
C
wind
direction
speed
KPH
gust
KPH
rain 1hr
cm
rain 24hr
cm
rain mn
cm
humidity
%
barometer
mb
20260906022820 24 54 6.4 16.1 0.00 0.00 0.00 87 1013.2
20260906022308 24 65 4.8 16.1 0.00 0.00 0.00 87 1013.2
20260906021752 24 43 4.8 11.3 0.00 0.00 0.00 87 1012.9
20260906020728 25 73 4.8 9.7 0.00 0.00 0.00 86 1012.9
20260906020216 25 44 6.4 14.5 0.00 0.00 0.00 85 1012.8
20260906015700 25 77 6.4 17.7 0.00 0.00 0.00 85 1012.8
20260906015146 25 17 8.0 17.7 0.00 0.00 0.00 85 1012.7
20260906014636 25 38 8.0 17.7 0.00 0.00 0.00 84 1012.7
20260906014131 25 325 8.0 22.5 0.00 0.00 0.00 84 1012.7
20260906013630 25 0 6.4 22.5 0.00 0.00 0.00 84 1012.5
20260906013128 26 12 4.8 11.3 0.00 0.00 0.00 84 1012.5
20260906012629 26 58 4.8 11.3 0.00 0.00 0.00 84 1012.5
20260906012130 26 47 4.8 11.3 0.00 0.00 0.00 84 1012.3
20260906011627 26 3 6.4 14.5 0.00 0.00 0.00 84 1012.3
20260906011129 26 34 6.4 14.5 0.00 0.00 0.00 83 1012.3
20260906010616 26 12 6.4 14.5 0.00 0.00 0.00 83 1012.2
20260906005551 27 7 4.8 11.3 0.00 0.00 0.00 82 1012.2
20260906005046 27 88 4.8 11.3 0.00 0.00 0.00 81 1012.1
20260906004541 27 60 6.4 17.7 0.00 0.00 0.00 81 1012.1
20260906004035 28 21 8.0 17.7 0.00 0.00 0.00 80 1012.1
20260906003525 28 7 8.0 20.9 0.00 0.00 0.00 79 1011.7
20260906003019 28 31 8.0 20.9 0.00 0.00 0.00 78 1011.7
20260906002513 28 37 6.4 14.5 0.00 0.00 0.00 78 1011.7
20260906002003 28 36 6.4 16.1 0.00 0.00 0.00 78 1011.7
20260906001457 28 12 6.4 16.1 0.00 0.00 0.00 78 1011.7
20260906000433 29 46 6.4 14.5 0.00 0.00 0.00 77 1011.6
20260905235925 29 21 6.4 14.5 0.00 0.00 0.00 76 1011.6
20260905234912 30 7 6.4 17.7 0.00 0.00 0.00 75 1011.7
20260905234408 30 51 9.7 17.7 0.00 0.00 0.00 75 1011.7
20260905233908 30 339 8.0 20.9 0.00 0.00 0.00 74 1011.7
20260905232900 30 12 8.0 16.1 0.00 0.00 0.00 74 1011.6
20260905232402 31 12 8.0 17.7 0.00 0.00 0.00 73 1011.6
20260905231856 31 49 8.0 17.7 0.00 0.00 0.00 72 1011.4
20260905225858 31 38 9.7 17.7 0.00 0.00 0.00 69 1011.2
20260905225358 32 49 9.7 19.3 0.00 0.00 0.00 68 1011.2
20260905224338 32 44 8.0 17.7 0.00 0.00 0.00 67 1011.2
20260905223828 32 63 6.4 14.5 0.00 0.00 0.00 67 1011.2
20260905222305 32 32 6.4 17.7 0.00 0.00 0.00 68 1011.2
20260905221756 32 28 8.0 17.7 0.00 0.00 0.00 68 1011.2
20260905221245 32 1 9.7 20.9 0.00 0.00 0.00 68 1011.2
20260905220233 33 2 9.7 20.9 0.00 0.00 0.00 66 1011.1
20260905215728 33 27 6.4 17.7 0.00 0.00 0.00 67 1011.1
20260905214707 33 7 4.8 14.5 0.00 0.00 0.00 66 1011.1
20260905214158 33 344 4.8 11.3 0.00 0.00 0.00 68 1011.1
20260905213652 32 21 6.4 14.5 0.00 0.00 0.00 67 1011.1
20260905213141 33 17 6.4 14.5 0.00 0.00 0.00 67 1011.1
20260905212125 33 12 6.4 16.1 0.00 0.00 0.00 66 1011.1
20260905211616 33 346 8.0 16.1 0.00 0.00 0.00 66 1011.1
20260905211105 33 21 6.4 14.5 0.00 0.00 0.00 65 1011.1
20260905210605 33 39 6.4 16.1 0.00 0.00 0.00 66 1011.5
20260905210105 33 21 6.4 16.1 0.00 0.00 0.00 67 1011.5
20260905205605 33 36 8.0 16.1 0.00 0.00 0.00 65 1011.5
20260905205106 33 7 8.0 17.7 0.00 0.00 0.00 66 1011.4
20260905204604 33 343 8.0 17.7 0.00 0.00 0.00 66 1011.4
20260905204101 33 50 6.4 16.1 0.00 0.00 0.00 67 1011.4
20260905203559 33 38 8.0 17.7 0.00 0.00 0.00 66 1011.5
20260905203055 33 49 8.0 17.7 0.00 0.00 0.00 66 1011.5
20260905202554 33 7 8.0 14.5 0.00 0.00 0.00 66 1011.5
20260905202052 33 12 6.4 14.5 0.00 0.00 0.00 66 1011.4
20260905201053 34 12 6.4 16.1 0.00 0.00 0.00 65 1011.4
20260905200553 34 44 8.0 16.1 0.00 0.00 0.00 64 1011.5
20260905200044 34 34 8.0 17.7 0.00 0.00 0.00 62 1011.5
20260905195546 35 25 8.0 19.3 0.00 0.00 0.00 64 1011.5
20260905195043 35 21 4.8 19.3 0.00 0.00 0.00 61 1011.5
20260905194544 35 7 3.2 8.0 0.00 0.00 0.00 63 1011.5
20260905194034 35 21 3.2 14.5 0.00 0.00 0.00 63 1011.5
20260905193529 35 321 6.4 16.1 0.00 0.00 0.00 63 1011.5
20260905193029 34 54 6.4 16.1 0.00 0.00 0.00 62 1011.5
20260905192509 34 29 4.8 14.5 0.00 0.00 0.00 65 1011.5
20260905191958 34 7 6.4 16.1 0.00 0.00 0.00 64 1011.6
20260905191451 34 306 4.8 16.1 0.00 0.00 0.00 61 1011.6
20260905190947 34 7 4.8 11.3 0.00 0.00 0.00 67 1011.6
20260905190440 34 330 4.8 11.3 0.00 0.00 0.00 65 1011.7
20260905185932 34 7 3.2 9.7 0.00 0.00 0.00 63 1011.7
20260905185425 34 321 1.6 6.4 0.00 0.00 0.00 64 1011.7
20260905184916 34 21 1.6 6.4 0.00 0.00 0.00 63 1012.0
20260905184406 34 310 3.2 19.3 0.00 0.00 0.00 62 1012.0
20260905183855 34 337 3.2 19.3 0.00 0.00 0.00 63 1012.0
20260905183345 34 334 3.2 9.7 0.00 0.00 0.00 61 1012.1
20260905182331 35 7 3.2 9.7 0.00 0.00 0.00 61 1012.1
20260905181819 35 323 3.2 8.0 0.00 0.00 0.00 62 1012.1
20260905181304 35 7 4.8 11.3 0.00 0.00 0.00 63 1012.1
20260905180807 34 2 3.2 11.3 0.00 0.00 0.00 61 1012.1
20260905175754 34 353 3.2 8.0 0.00 0.00 0.00 66 1012.1
20260905175255 34 322 4.8 16.1 0.00 0.00 0.00 68 1012.1
20260905174748 34 29 6.4 16.1 0.00 0.00 0.00 63 1012.2
20260905173239 34 25 3.2 9.7 0.00 0.00 0.00 64 1012.2
20260905172732 34 7 1.6 6.4 0.00 0.00 0.00 64 1012.2
20260905171719 34 321 1.6 6.4 0.00 0.00 0.00 63 1012.3
20260905171207 34 336 3.2 9.7 0.00 0.00 0.00 62 1012.3
20260905170655 34 40 3.2 11.3 0.00 0.00 0.00 64 1012.5
20260905170140 34 43 3.2 11.3 0.00 0.00 0.00 64 1012.5
20260905165131 34 12 3.2 16.1 0.00 0.00 0.00 63 1012.6
20260905164626 34 327 3.2 16.1 0.00 0.00 0.00 63 1012.6
20260905164127 33 341 3.2 11.3 0.00 0.00 0.00 63 1012.6
20260905163621 33 291 3.2 14.5 0.00 0.00 0.00 64 1012.6
20260905162619 33 277 1.6 6.4 0.00 0.00 0.00 67 1012.6
20260905162111 33 355 1.6 6.4 0.00 0.00 0.00 65 1012.6
20260905161608 33 318 1.6 6.4 0.00 0.00 0.00 65 1012.6
20260905161109 33 56 3.2 6.4 0.00 0.00 0.00 68 1012.6
20260905160601 33 29 3.2 8.0 0.00 0.00 0.00 68 1012.5
20260905160052 33 226 1.6 8.0 0.00 0.00 0.00 68 1012.5
20260905155549 33 327 3.2 8.0 0.00 0.00 0.00 67 1012.5
20260905155038 33 357 3.2 9.7 0.00 0.00 0.00 67 1012.6
20260905153508 32 345 1.6 6.4 0.00 0.00 0.00 70 1012.6
20260905153000 32 349 1.6 6.4 0.00 0.00 0.00 74 1012.6
20260905152457 32 305 1.6 8.0 0.00 0.00 0.00 69 1012.6
20260905151956 31 319 1.6 8.0 0.00 0.00 0.00 70 1012.6
20260905151451 31 21 0.0 3.2 0.00 0.00 0.00 73 1012.6
20260905150951 31 7 1.6 4.8 0.00 0.00 0.00 75 1012.6
20260905145941 31 288 1.6 6.4 0.00 0.00 0.00 74 1012.3
20260905145434 31 293 0.0 3.2 0.00 0.00 0.00 73 1012.3
20260905144935 30 287 0.0 3.2 0.00 0.00 0.00 75 1012.2
20260905144416 30 287 0.0 3.2 0.00 0.00 0.00 74 1012.2
20260905143917 30 287 0.0 4.8 0.00 0.00 0.00 76 1012.2
20260905142834 30 287 0.0 3.2 0.00 0.00 0.00 74 1012.2
20260905142325 30 296 0.0 3.2 0.00 0.00 0.00 75 1012.2
20260905141821 30 296 0.0 3.2 0.00 0.00 0.00 76 1012.2
20260905141310 29 271 0.0 3.2 0.00 0.00 0.00 76 1012.2
20260905140800 29 271 0.0 3.2 0.00 0.00 0.00 76 1012.2
20260905140248 28 271 1.6 4.8 0.00 0.00 0.00 76 1012.5
20260905135740 28 271 1.6 4.8 0.00 0.00 0.00 77 1012.5
20260905135233 28 277 1.6 4.8 0.00 0.00 0.00 78 1012.5
20260905134724 28 244 0.0 3.2 0.00 0.00 0.00 79 1012.6
20260905134210 28 244 0.0 1.6 0.00 0.00 0.00 81 1012.6
20260905133709 28 244 1.6 3.2 0.00 0.00 0.00 79 1012.6
20260905133153 27 244 1.6 4.8 0.00 0.00 0.00 81 1012.4
20260905132654 27 244 1.6 4.8 0.00 0.00 0.00 83 1012.4
20260905131641 27 223 1.6 6.4 0.00 0.00 0.00 83 1012.3
20260905131138 26 287 1.6 4.8 0.00 0.00 0.00 83 1012.3
20260905130639 26 284 0.0 4.8 0.00 0.00 0.00 84 1012.3
20260905130127 26 232 0.0 1.6 0.00 0.00 0.00 85 1012.3
20260905125616 26 232 0.0 3.2 0.00 0.00 0.00 87 1012.3
20260905125054 25 232 0.0 3.2 0.00 0.00 0.00 87 1012.3
20260905124546 25 232 0.0 3.2 0.00 0.00 0.00 88 1012.3
20260905124029 25 232 0.0 3.2 0.00 0.00 0.00 89 1012.3
20260905123525 25 232 0.0 3.2 0.00 0.00 0.00 90 1012.3
20260905123012 24 232 0.0 4.8 0.00 0.00 0.00 90 1012.3
20260905121948 24 232 1.6 4.8 0.00 0.00 0.00 91 1012.0
20260905120932 23 232 1.6 4.8 0.00 0.00 0.00 92 1012.0
20260905120426 23 232 3.2 6.4 0.00 0.00 0.00 93 1011.7
20260905115416 23 224 1.6 4.8 0.00 0.00 0.00 93 1011.7
20260905114909 23 224 1.6 4.8 0.00 0.00 0.00 94 1011.7
20260905114358 23 282 1.6 3.2 0.00 0.00 0.00 94 1011.7
20260905113852 23 282 0.0 3.2 0.00 0.00 0.00 94 1011.7
20260905113342 23 282 0.0 0.0 0.00 0.00 0.00 95 1011.7
20260905112839 23 282 0.0 0.0 0.00 0.00 0.00 94 1011.7
20260905112305 23 282 0.0 0.0 0.00 0.00 0.00 94 1011.7
20260905111740 23 282 0.0 0.0 0.00 0.00 0.00 94 1011.6
20260905111205 23 282 0.0 0.0 0.00 0.00 0.00 94 1011.6
20260905110702 23 282 0.0 0.0 0.00 0.00 0.00 95 1011.5
20260905110143 23 282 0.0 0.0 0.00 0.00 0.00 95 1011.5
20260905105641 23 282 0.0 0.0 0.00 0.00 0.00 95 1011.5
20260905105140 23 282 0.0 0.0 0.00 0.00 0.00 95 1011.6
20260905104610 23 282 0.0 0.0 0.00 0.00 0.00 95 1011.6
20260905104100 23 282 0.0 0.0 0.00 0.00 0.00 95 1011.6
20260905103534 23 282 0.0 0.0 0.00 0.00 0.00 95 1011.6
20260905103029 23 282 0.0 0.0 0.00 0.00 0.00 95 1011.6
20260905102010 23 282 0.0 0.0 0.00 0.00 0.00 96 1011.6
20260905100948 23 282 0.0 0.0 0.00 0.00 0.00 96 1011.6
20260905100431 23 282 0.0 0.0 0.00 0.00 0.00 96 1011.6
20260905095859 23 282 0.0 0.0 0.00 0.00 0.00 95 1011.6
20260905095352 23 282 0.0 0.0 0.00 0.00 0.00 95 1011.6
20260905093851 23 282 0.0 0.0 0.00 0.00 0.00 95 1011.6
20260905093350 23 282 0.0 0.0 0.00 0.00 0.00 95 1011.6
20260905092824 23 282 0.0 0.0 0.00 0.00 0.00 95 1011.6
20260905092314 23 282 0.0 0.0 0.00 0.00 0.00 95 1011.6
20260905091756 23 282 0.0 0.0 0.00 0.00 0.00 95 1011.6
20260905091250 23 282 0.0 0.0 0.00 0.00 0.00 95 1011.6
20260905090739 23 282 0.0 0.0 0.00 0.00 0.00 95 1011.6
20260905085152 23 282 0.0 0.0 0.00 0.00 0.00 94 1011.5
20260905084646 23 282 0.0 0.0 0.00 0.00 0.00 94 1011.5
20260905084146 23 282 0.0 0.0 0.00 0.00 0.00 94 1011.5
20260905083642 23 282 0.0 0.0 0.00 0.00 0.00 94 1011.5
20260905083140 24 282 0.0 0.0 0.00 0.00 0.00 94 1011.5
20260905082638 24 282 0.0 0.0 0.00 0.00 0.00 93 1011.5
20260905082134 24 282 0.0 0.0 0.00 0.00 0.00 93 1011.5
20260905081618 24 282 0.0 0.0 0.00 0.00 0.00 93 1011.5
20260905081110 24 282 0.0 0.0 0.00 0.00 0.00 93 1011.5
20260905080056 24 282 0.0 0.0 0.00 0.00 0.00 92 1011.5
20260905075542 24 282 0.0 0.0 0.00 0.00 0.00 92 1011.5
20260905075032 24 282 0.0 0.0 0.00 0.00 0.00 92 1011.5
20260905074525 24 282 0.0 0.0 0.00 0.00 0.00 92 1011.5
20260905074014 25 282 0.0 0.0 0.00 0.00 0.00 92 1011.5
20260905073508 24 282 0.0 0.0 0.00 0.00 0.00 92 1011.7
20260905073003 24 282 0.0 0.0 0.00 0.00 0.00 92 1011.7
20260905071956 24 282 0.0 0.0 0.00 0.00 0.00 92 1012.1
20260905071436 24 282 0.0 0.0 0.00 0.00 0.00 93 1012.1
20260905070430 24 282 0.0 0.0 0.00 0.00 0.00 93 1012.0
20260905065924 24 282 0.0 0.0 0.00 0.00 0.00 93 1012.0
20260905064857 24 282 0.0 0.0 0.00 0.00 0.00 92 1012.0
20260905063844 24 282 0.0 0.0 0.00 0.00 0.00 93 1012.0
20260905062305 24 282 0.0 0.0 0.00 0.00 0.00 93 1012.1
20260905061748 24 282 0.0 0.0 0.00 0.00 0.00 93 1012.2
20260905061236 24 282 0.0 0.0 0.00 0.00 0.00 93 1012.2
20260905060722 25 282 0.0 0.0 0.00 0.00 0.00 93 1012.2
20260905060216 25 282 0.0 0.0 0.00 0.00 0.00 93 1012.1
20260905055701 25 282 0.0 0.0 0.00 0.00 0.00 94 1012.1
20260905055159 25 282 0.0 0.0 0.00 0.00 0.00 93 1012.1
20260905054630 25 282 0.0 0.0 0.00 0.00 0.00 93 1012.1
20260905054053 25 282 0.0 0.0 0.00 0.00 0.00 93 1012.1
20260905053518 25 282 0.0 0.0 0.00 0.00 0.00 93 1012.1
20260905052501 25 282 0.0 0.0 0.00 0.00 0.00 93 1012.1
20260905052002 25 282 0.0 0.0 0.00 0.00 0.00 93 1012.2
20260905051447 25 282 0.0 0.0 0.00 0.00 0.00 92 1012.2
20260905050947 25 282 0.0 0.0 0.00 0.00 0.00 92 1012.2
20260905050445 25 282 0.0 0.0 0.00 0.00 0.00 92 1012.1
20260905045929 25 282 0.0 0.0 0.00 0.00 0.00 92 1012.1
20260905045419 25 282 0.0 0.0 0.00 0.00 0.00 92 1012.1
20260905044919 25 282 0.0 0.0 0.00 0.00 0.00 92 1012.1
20260905044357 25 282 0.0 0.0 0.00 0.00 0.00 92 1012.1
20260905043844 25 282 0.0 0.0 0.00 0.00 0.00 92 1012.1
20260905043335 25 282 0.0 0.0 0.00 0.00 0.00 92 1012.1
20260905042753 25 282 0.0 0.0 0.00 0.00 0.00 91 1012.1
20260905042233 25 282 0.0 0.0 0.00 0.00 0.00 91 1012.1
20260905040706 25 282 0.0 0.0 0.00 0.00 0.00 91 1012.1
20260905035657 25 282 0.0 0.0 0.00 0.00 0.00 91 1012.1
20260905035146 26 282 0.0 0.0 0.00 0.00 0.00 91 1012.2
20260905034641 26 282 0.0 0.0 0.00 0.00 0.00 91 1012.2
20260905034139 26 282 0.0 0.0 0.00 0.00 0.00 91 1012.2
20260905033634 26 282 0.0 0.0 0.00 0.00 0.00 91 1012.2
20260905033120 26 282 0.0 0.0 0.00 0.00 0.00 91 1012.2
20260905032612 26 282 0.0 0.0 0.00 0.00 0.00 91 1012.2
20260905032101 26 282 0.0 0.0 0.00 0.00 0.00 91 1012.3
20260905031557 26 282 0.0 0.0 0.00 0.00 0.00 90 1012.3
20260905031052 26 282 0.0 0.0 0.00 0.00 0.00 91 1012.3
20260905030514 26 282 0.0 0.0 0.00 0.00 0.00 91 1012.2
20260905025951 26 282 0.0 0.0 0.00 0.00 0.00 91 1012.2
20260905024924 26 282 0.0 0.0 0.00 0.00 0.00 90 1012.2
20260905024410 26 282 0.0 0.0 0.00 0.00 0.00 89 1012.2
20260905023856 26 282 0.0 0.0 0.00 0.00 0.00 89 1012.2